This is the latest recevied weather packets stored in our database for station/object W1REE. If no packets are shown the sender has not sent any weather packets the latest 10 day(s).
| Time | Temp. | Humidity | Pressure | Rain* | Wind** | Luminosity | Snow |
|---|---|---|---|---|---|---|---|
| 1777604339 | 2.78° C | 96% | 1023.8 hPa | 1.27 mm | - | 0 W/m² | - |
| 1777604039 | 2.78° C | 96% | 1023.5 hPa | 0 mm | - | 0 W/m² | - |
| 1777603736 | 2.78° C | 96% | 1023.4 hPa | 0 mm | - | 0 W/m² | - |
| 1777603433 | 2.78° C | 96% | 1023.4 hPa | 0 mm | - | 0 W/m² | - |
| 1777603128 | 2.78° C | 96% | 1023.5 hPa | 0 mm | - | 0 W/m² | - |
| 1777602823 | 2.78° C | 96% | 1023.2 hPa | 0 mm | - | 0 W/m² | - |
| 1777602519 | 2.78° C | 96% | 1023 hPa | 1.78 mm | - | 0 W/m² | - |
| 1777602216 | 2.78° C | 96% | 1023.1 hPa | 1.78 mm | - | 0 W/m² | - |
| 1777601911 | 2.78° C | 96% | 1023 hPa | 0 mm | - | 0 W/m² | - |
| 1777601606 | 2.78° C | 96% | 1023 hPa | 0 mm | - | 0 W/m² | - |
| 1777601301 | 2.78° C | 96% | 1022.9 hPa | 0 mm | - | 0 W/m² | - |
| 1777600999 | 2.78° C | 96% | 1022.9 hPa | 0 mm | - | 0 W/m² | - |
| 1777600695 | 2.78° C | 96% | 1022.8 hPa | 0 mm | - | 1 W/m² | - |
| 1777600391 | 2.78° C | 96% | 1022.5 hPa | 0 mm | - | 1 W/m² | - |
| 1777600087 | 2.78° C | 96% | 1022.5 hPa | 1.78 mm | - | 1 W/m² | - |
| 1777599783 | 2.78° C | 96% | 1022.6 hPa | 1.78 mm | - | 3 W/m² | - |
| 1777599478 | 2.78° C | 96% | 1022.5 hPa | 0 mm | - | 5 W/m² | - |
| 1777599175 | 2.78° C | 96% | 1022.4 hPa | 0 mm | - | 7 W/m² | - |
| 1777598870 | 2.78° C | 96% | 1022.5 hPa | 1.27 mm | - | 7 W/m² | - |
| 1777598569 | 2.78° C | 96% | 1022.3 hPa | 1.27 mm | - | 6 W/m² | - |
| 1777598265 | 2.78° C | 96% | 1022.4 hPa | 1.78 mm | - | 7 W/m² | - |
| 1777597963 | 2.78° C | 96% | 1022.4 hPa | 1.78 mm | - | 9 W/m² | - |
| 1777597662 | 2.78° C | 96% | 1022.2 hPa | 1.27 mm | - | 11 W/m² | - |
| 1777597358 | 2.78° C | 95% | 1022.4 hPa | 1.27 mm | - | 13 W/m² | - |
| 1777597053 | 2.78° C | 95% | 1022.2 hPa | 1.78 mm | - | 13 W/m² | - |
* Rain latest hour (hover to see other rain measurements)
** Current wind speed in m/s (hover to see current wind gust speed)